Tracking 25648 objects as of 17-May-2022
HD Live streaming from Space Station
objects crossing your sky now

PEGASUS R/B

Track PEGASUS R/B now!
10-day predictions


NORAD ID: 32766
Int'l Code: 2008-017B
Perigee: 336.1 km
Apogee: 423.5 km
Inclination: 13.0 °
Period: 92.0 minutes
Semi major axis: 6750 km
RCS: 1.2481 m2 (large)
Launch date: April 16, 2008
Source: United States (US)
Launch site: Pegasus launched from Western Range Air Space (WRAS)

Note: This is a ROCKET BODY
aabbcc
Your satellite tracking list
Your tracking list is empty




NASA's NSSDC Master Catalog

Two Line Element Set (TLE):
1 32766U 08017B   22137.50753106  .00090814  00000-0  76012-3 0  9993
2 32766  12.9973 275.8365 0064746 244.4830 114.8747 15.65199017780602
Source of the keplerian elements: AFSPC